Regional Weather Roundup
Issued by NWS

Home | Current Version | Previous Version | Graphics & Text | Print | Product List | Glossary On
Versions: 1 2 3 4 5 6 7 8 9 10 11 12 13 14 15 16 17 18 19 20 21 22 23 24 25 26 27 28 29 30 31 32 33 34 35 36 37 38 39 40 41 42 43 44 45 46 47 48 49 50
112
ASUS43 KLMK 310502
RWRKY
KENTUCKY REGIONAL WEATHER ROUNDUP
NATIONAL WEATHER SERVICE LOUISVILLE KY
100 AM EDT WED AUG 31 2016

NOTE "FAIR" INDICATES FEW OR NO CLOUDS BELOW 12,000 FEET
WITH NO SIGNIFICANT WEATHER AND/OR OBSTRUCTIONS TO VISIBILITY.

KYZ001>023-026-027-061>063-070>075-310600-
WESTERN AND SOUTH CENTRAL KENTUCKY

CITY           SKY/WX    TMP DP  RH WIND       PRES   REMARKS
PADUCAH        CLEAR     78  71  79 N6        30.03S
HENDERSON      MOCLDY    79  72  78 N6        30.03S VSB<1/4
OWENSBORO      PTCLDY    77  75  93 CALM      30.04S
HOPKINSVILLE   CLEAR     77  74  88 N3        30.03S
BOWLING GREEN  CLEAR     77  73  87 CALM      30.04R
GLASGOW        CLEAR     73  73 100 CALM      30.04S
$$

KYZ024-025-028>034-038-045-046-053-310600-
NORTH CENTRAL KENTUCKY

CITY           SKY/WX    TMP DP  RH WIND       PRES   REMARKS
LOUISVILLE/SDF MOCLDY    81  69  67 CALM      30.04S
LOUISVILLE/LOU MOCLDY    81  69  67 CALM      30.05S
FORT KNOX      CLEAR     76  71  87 N5        30.04R
$$

KYZ035>037-039>044-047>052-055>060-089>105-310600-
NORTHEAST KENTUCKY

CITY           SKY/WX    TMP DP  RH WIND       PRES   REMARKS
LEXINGTON      CLEAR     75  66  73 N3        30.07S
COVINGTON      MOCLDY    73  68  84 N10       30.07F
FRANKFORT      CLEAR     73  69  87 CALM      30.05S
$$

KYZ054-064>069-076>088-106>120-310600-
SOUTHEAST KENTUCKY

CITY           SKY/WX    TMP DP  RH WIND       PRES   REMARKS
JACKSON        CLEAR     73  70  90 CALM      30.08F
LONDON         CLEAR     71  67  87 CALM      30.07F
SOMERSET       CLEAR     72  72 100 CALM      30.07S
MIDDLESBORO    CLEAR     69  69  99 CALM      30.09S
MONTICELLO     CLEAR    N/A N/A N/A W10       30.08S
$$





USA.gov is the U.S. government's official web portal to all federal, state and local government web resources and services.